This demonstration page uses our WeatherBlox Daily Observations layout. Learn more.

Left ArrowRight Arrow

44.8408, -93.29828

Hourly Observations for June 29, 2015

Temp ( °F °C ) Dew Point ( °F °C ) Humidity (%) Winds ( mph kmh ) Pressure ( in mb ) Visibility ( mi km ) Precip ( " mm )
12:53 am 00:53 Partly Cloudy 67 19.4 65 18.3 93 93 W 3 6 29.80 1009 7 11 0.00 0.00
1:53 am 01:53 Partly Cloudy 67 19.4 64 17.8 91 91 Calm 29.80 1009 7 11 0.00 0.00
2:53 am 02:53 Partly Cloudy with Mist and Fog 66 18.9 63 17.2 90 90 Calm 29.80 1009 5 8 0.00 0.00
3:32 am 03:32 Partly Cloudy with Patchy Fog 66 18.9 63 17.2 90 90 Calm 29.80 1009 6 10 0.00 0.00
3:53 am 03:53 Partly Cloudy with Patchy Fog 66 18.9 63 17.2 90 90 Calm 29.79 1009 6 10 0.00 0.00
4:53 am 04:53 Partly Cloudy with Patchy Fog 65 18.3 62 16.7 90 90 Calm 29.80 1009 6 10 0.00 0.00
5:53 am 05:53 Partly Cloudy with Patchy Fog 65 18.3 63 17.2 93 93 SSW 3 6 29.80 1009 6 10 0.00 0.00
6:53 am 06:53 Partly Cloudy with Patchy Fog 66 18.9 63 17.2 90 90 SW 3 6 29.81 1010 7 11 0.00 0.00
7:53 am 07:53 Mostly Sunny 70 21.1 65 18.3 84 84 NW 6 9 29.82 1010 9 14 0.00 0.00
8:53 am 08:53 Sunny 73 22.8 64 17.8 74 74 NW 5 7 29.82 1010 10 16 0.00 0.00
9:53 am 09:53 Sunny 76 24.4 64 17.8 67 67 WNW 8 13 29.82 1010 10 16 0.00 0.00
10:53 am 10:53 Mostly Sunny 78 25.6 64 17.8 62 62 WNW 8 13 29.81 1010 10 16 0.00 0.00
11:53 am 11:53 Mostly Sunny 80 26.7 63 17.2 56 56 NW 12 19 29.81 1010 10 16 0.00 0.00
12:53 pm 12:53 Mostly Sunny 82 27.8 63 17.2 53 53 WNW 12 19 29.80 1009 10 16 0.00 0.00
1:53 pm 13:53 Partly Cloudy 83 28.3 63 17.2 51 51 W 12 19 29.79 1009 8 13 0.00 0.00
2:53 pm 14:53 Mostly Cloudy 82 27.8 63 17.2 53 53 W 12 19 29.78 1008 8 13 0.00 0.00
3:53 pm 15:53 Mostly Cloudy 80 26.7 62 16.7 54 54 W 9 15 29.77 1008 8 13 0.00 0.00
4:16 pm 16:16 Cloudy with Thunderstorms 79 26 64 18 61 61 W 10 17 29.74 1007 8 13 0.00 0.00
4:24 pm 16:24 Cloudy with Nearby Thunderstorms 79 26 64 18 61 61 WNW 9 15 29.74 1007 8 13 0.00 0.00
4:53 pm 16:53 Mostly Cloudy with Nearby Thunderstorms 77 25 62 16.7 60 60 W 14 22 29.76 1008 7 11 0.00 0.03
4:55 pm 16:55 Mostly Sunny 77 25 61 16.1 58 58 W 14 22 29.74 1007 7 11 0.00 0.00
5:53 pm 17:53 Mostly Cloudy with Haze 80 26.7 64 17.8 58 58 WSW 9 15 29.76 1008 6 10 0.00 0.00
6:53 pm 18:53 Cloudy 81 27.2 64 17.8 57 57 WNW 13 20 29.77 1008 7 11 0.00 0.00
7:05 pm 19:05 Mostly Cloudy with Haze 78 25.6 61 16.1 56 56 ENE 22 35 29.77 1008 6 10 0.00 0.00
7:19 pm 19:19 Cloudy with Nearby Thunderstorms 73 22.8 56 13.3 55 55 E 20 31 29.77 1008 7 11 0.00 0.00
7:43 pm 19:43 Cloudy with Thunderstorms 70 21.1 58 14.4 66 66 N 14 22 29.83 1010 4 6 0.00 0.03
7:49 pm 19:49 Cloudy with Thunderstorms 68 20 59 15 73 73 W 6 9 29.80 1009 2 3 0.00 0.03
7:53 pm 19:53 Cloudy with Light Rain 68 20 61 16.1 78 78 SE 9 15 29.80 1009 1 1 0.00 0.03
7:57 pm 19:57 Cloudy with Light Rain 68 20 61 16.1 78 78 SE 10 17 29.80 1009 1 2 0.05 1.27
8:01 pm 20:01 Cloudy with Haze 67 19.4 61 16.1 81 81 SE 6 9 29.80 1009 3 4 0.05 1.27
8:08 pm 20:08 Mostly Cloudy with Light Rain 68 20 61 16 78 78 Calm 29.80 1009 5 8 0.00 0.00
8:22 pm 20:22 Mostly Cloudy with Nearby Thunderstorms 67 19.4 62 16.7 84 84 SSE 6 9 29.80 1009 6 10 0.05 1.27
8:33 pm 20:33 Mostly Cloudy with Nearby Thunderstorms 67 19.4 63 17.2 87 87 SSE 5 7 29.80 1009 2 3 0.05 1.27
8:42 pm 20:42 Cloudy with Nearby Thunderstorms 66 19 63 17 88 88 E 6 9 29.80 1009 1 2 0.00 0.00
8:46 pm 20:46 Cloudy with Light Rain 66 19 63 17 88 88 ESE 8 13 29.80 1009 2 2 0.00 0.00
8:53 pm 20:53 Mostly Cloudy with Light Rain 67 19.4 63 17.2 87 87 SSW 7 11 29.79 1009 4 6 0.11 2.79
9:14 pm 21:14 Cloudy with Nearby Thunderstorms 68 20 63 17 83 83 WSW 7 11 29.80 1009 4 6 0.00 0.00
9:29 pm 21:29 Mostly Cloudy 68 20 62 16.7 81 81 SSW 8 13 29.80 1009 7 11 0.00 0.03
9:53 pm 21:53 Mostly Cloudy 68 20 61 16.1 78 78 Calm 29.80 1009 7 11 0.00 0.03
10:53 pm 22:53 Partly Cloudy 66 18.9 62 16.7 87 87 Calm 29.81 1010 7 11 0.00 0.00
11:53 pm 23:53 Mostly Clear 66 18.9 63 17.2 90 90 Calm 29.83 1010 7 11 0.00 0.00

Powered by AerisWeather